{"data":{"norad_id":65559,"intl_designator":"2025-201K","name":"GEESAT-5 10","alt_names":[],"object_type":"PAYLOAD","status":"ACTIVE","operator":null,"country":"PRC","launch_date":"2025-09-08","launch_site_code":"YSLA","launch_vehicle":null,"mission":null,"orbit_class":"UNKNOWN","rcs_meters":null,"size_class":null,"mass_kg":null,"dimensions":null,"purposes":[],"wikipedia_slug":null,"has_3d_model":false,"image_url":null,"decayed_at":null,"tle_current":{"epoch":"2026-09-20T09:49:16.885344Z","epoch_age_seconds":160435,"freshness":"FRESH","line1":"1 65559U 25201K   26263.40922321  .00000864  00000+0  12865-3 0  9994","line2":"2 65559  49.9840 316.9513 0007761 290.7127  69.2979 14.84396958 55945","mean_motion":14.84396958,"eccentricity":0.0007761,"inclination_deg":49.984,"raan_deg":316.9513,"arg_perigee_deg":290.7127,"mean_anomaly_deg":69.2979,"bstar":0.00012865,"rev_number":5594,"period_min":97.009091283789,"perigee_km":610.05160030728,"apogee_km":620.90709159947,"semimajor_km":6993.6163459534,"source":"CELESTRAK","updated_at":"2026-09-21T09:00:15.426688Z"}}}